Regional Weather Roundup
Issued by NWS

Home | Current Version | Previous Version | Text Only | Print | Product List | Glossary On
Versions: 1 2 3 4 5 6 7 8 9 10 11 12 13 14 15 16 17 18 19 20 21 22 23 24 25 26 27 28 29 30 31 32 33 34 35 36 37 38 39 40 41 42 43 44 45 46 47 48 49 50
000
ASUS44 KEWX 100811
RWRTX
SOUTH TEXAS REGIONAL WEATHER ROUNDUP
NATIONAL WEATHER SERVICE AUSTIN/SAN ANTONIO TX
200 AM CST SAT DEC 10 2016

NOTE: "FAIR" INDICATED FEW OR NO CLOUDS BELOW 12,000 FEET WITH NO
SIGNIFICANT WEATHER AND/OR OBSTRUCTIONS TO VISIBILITY.

* - THESE STATIONS ARE NOT NWS OR FAA STATIONS...AND ARE NOT SUBJECT
    TO NWS AND FAA QUALITY CONTROL.

TXZ171-172-183>190-100900-
TEXAS HILL COUNTRY AND EDWARDS PLATEAU

CITY           SKY/WX    TMP DP  RH WIND       PRES   REMARKS
JUNCTION       CLOUDY    32  27  81 CALM      30.40F
*LLANO         CLOUDY   N/A N/A N/A CALM      30.48S
BURNET         PTCLDY    34  25  69 CALM      30.47R
*HORSESHOE BAY CLOUDY    35  29  78 CALM      30.46R
*KERRVILLE     CLEAR     28  26  91 CALM      30.43S
*FREDERICKSBRG PTCLDY    28  24  86 CALM      30.43S
*ROCKSPRINGS   CLOUDY    36  27  69 S9        30.39F WCI  29
*BOERNE STAGE  CLOUDY    30  28  93 CALM      30.45S
*CASTROVILLE   CLOUDY    41  29  63 CALM      30.48S
HONDO          CLOUDY    41  30  65 CALM      30.46F
*UVALDE        CLOUDY    41  30  65 CALM      30.46S
DEL RIO        CLOUDY    42  34  73 SE10      30.41F WCI  36
LAUGHLIN AFB   CLOUDY    42  36  80 SE7       30.42F WCI  38
CARRIZO SPRGS  NOT AVBL
*EAGLE PASS    NOT AVBL
$$

TXZ173-191>194-202-209-217>225-228-100900-
CENTRAL AND SOUTH CENTRAL TEXAS

CITY           SKY/WX    TMP DP  RH WIND       PRES   REMARKS
GEORGETOWN     CLEAR     30  25  80 CALM      30.47S
AUSTIN/BERGSTM CLEAR     31  29  92 CALM      30.47F
AUSTIN/MABRY   CLEAR     36  28  73 CALM      30.48F
*AUSTIN/EXEC   MOCLDY    37  32  81 CALM      30.48S
*LAGO VISTA    MOCLDY    37  26  66 SE5       30.45S WCI  33
SAN MARCOS     CLOUDY    30  28  93 NW3       30.48S
NEW BRAUNFELS  MOCLDY    36  31  82 CALM      30.46F
RANDOLPH AFB   CLOUDY    38  34  83 CALM      30.46F
PT SAN ANTONIO CLOUDY    43  23  46 E3        30.44S
SAN ANTONIO    CLOUDY    40  27  59 CALM      30.46F
STINSON FIELD  CLOUDY    44  26  49 CALM      30.46F
*PLEASANTON    CLOUDY    44  28  52 E3        30.48F
*LA GRANGE     MOCLDY    37  34  88 CALM      30.47F
*GIDDINGS      PTCLDY    33  31  92 CALM      30.52S
*GONZALES      NOT AVBL
$$

TXZ163>164-176>182-195>201-210>213-226-227-235-100900-
SOUTHEAST TEXAS

CITY           SKY/WX    TMP DP  RH WIND       PRES   REMARKS
COLLEGE STN    CLEAR     38  28  67 E5        30.50S WCI  34
*BRYAN         NOT AVBL
*CALDWELL      NOT AVBL
*CROCKETT      CLEAR     32  25  74 NE5       30.54S WCI  27
*BRENHAM       CLEAR     37  31  78 CALM      30.50S
HUNTSVILLE     CLEAR     34  29  82 CALM      30.50F
CONROE         CLEAR     36  32  85 CALM      30.51F
HOUSTON BUSH   PTCLDY    39  30  70 NE3       30.51S
HOUSTON HOBBY  MOCLDY    43  30  60 NE6       30.50S WCI  39
*HOUSTON SW AP CLOUDY    43  33  68 CALM      30.51S
PEARLAND       MOCLDY    46  31  55 N5        30.51F WCI  44
HOUSTON HOOKS  CLEAR     39  31  72 NE3       30.51S
ELLINGTON FLD  MOCLDY    45  28  53 NE5       30.50F WCI  42
SUGAR LAND     CLOUDY    42  33  70 NE6       30.49F WCI  38
*HOUSTON EXEC    N/A     39  34  81 E3        30.51S
*CLEVELAND MUN CLEAR     36  31  82 CALM      30.53S
*WHARTON       PTCLDY    40  34  81 N3        30.50S
*COLUMBUS      NOT AVBL
*EAGLE LAKE    NOT AVBL
$$

TXZ214>216-236>238-100900-
THE UPPER TEXAS COAST

CITY           SKY/WX    TMP DP  RH WIND       PRES   REMARKS
*ORANGE        CLEAR     36  26  67 NE6       30.55S WCI  31
PORT ARTHUR    PTCLDY    39  28  64 NE8       30.52S WCI  33
GALVESTON      CLOUDY    48  36  63 NE13      30.50S WCI  43
ANGLETON       CLOUDY    46  35  65 N6        30.49F WCI  43
*BAY CITY      CLOUDY    46  36  70 N5        30.49S WCI  43
PALACIOS       CLOUDY    44  36  73 NE8       30.48F WCI  39
$$

TXZ229>234-239>247-100900-
TEXAS COASTAL BEND AND RIO GRANDE PLAINS

CITY           SKY/WX    TMP DP  RH WIND       PRES   REMARKS
VICTORIA       CLOUDY    45  35  68 NE7       30.48F WCI  41
*BEEVILLE      CLOUDY    46  34  62 NE3       30.46F
ROCKPORT       CLOUDY    48  33  56 NE6       30.46F WCI  45
*PORT ARANSAS  CLOUDY    48  37  64 N9        30.45F WCI  44
*PORT LAVACA   CLOUDY    45  38  75 NE7       30.48F WCI  41
*INGLESIDE     CLOUDY    49  36  61 NE12      30.45F WCI  44
CORPUS CHRISTI CLOUDY    48  33  56 NE12      30.46F WCI  43
CORPUS NAS     CLOUDY    49  39  68 NE15      30.45F WCI  43
*ROBSTOWN      CLOUDY    48  37  67 NE5       30.46F WCI  46
ALICE          CLOUDY    47  34  60 N6        30.45F WCI  44
KINGSVILLE NAS CLOUDY    47  38  71 N8        30.45F WCI  43
COTULLA        CLOUDY    47  27  45 SE6       30.47F WCI  44
*FAITH RANCH   CLOUDY    45  34  65 CALM      30.45S
LAREDO         CLOUDY    46  30  53 CALM      30.46F
$$

TXZ248>255-100900-
DEEP SOUTH TEXAS

CITY           SKY/WX    TMP DP  RH WIND       PRES   REMARKS
BROWNSVILLE    CLOUDY    47  36  65 N13G20    30.40F WCI  41
PORT ISABEL    CLOUDY    47  37  68 NW15      30.40F WCI  41
*SOUTH PADRE     N/A     48  41  76 NW17G24   30.39F WCI  42
HARLINGEN      CLOUDY    46  36  68 N10       30.41F WCI  41
*HEBBRONVILLE  CLOUDY    44  28  53 CALM      30.45S
MCALLEN        CLOUDY    47  35  63 NW7       30.45F WCI  44
*WESLACO       CLOUDY    46  33  61 NW8       30.43F WCI  41
FALFURRIAS     CLOUDY    47  31  53 N3        30.45F
EDINBURG       CLOUDY    48  34  59 NW7       30.45F WCI  45
*ZAPATA        CLOUDY    46  32  58 CALM      30.45F
$$

TXZ213>215-236>238-242>244-246-247-251-254-255-100900-
CMAN STATIONS

STATION/POSITION TIME  TEMP    WIND        PRES    WAVE
                       AIR SEA DIR/SP/G            HT/PER
                 (UTC) (F)     (DEG/KT/KT) (MB)    (FT/S)
SABINE PASS      0742   42 56   40/ 12/ 14 1034.3
SEA RIM ST PARK  0800   40      50/  6/  7 1033.6
NORTH JETTY/GLS  0742   48 57   40/ 17/ 19   N/A
EAGLE POINT      0742   47 53   70/ 13/ 15 1032.6
MORGANS POINT    0742   45 57   40/  8/ 11 1032.9
PORT O`CONNOR    0742   49      30/ 14/ 17 1031.3
PORT ARANSAS     0800   48 59  360/ 11/ 12 1030.7
MALAQUITE BEACH  0742   50 59  360/ 13/ 16 1031.4
BAFFIN BAY       0742   48 53  350/ 12/ 14 1030.7
PORT ISABEL      0742   48 60  340/ 14/ 19 1029.0
$$

GMZ080-GMZ150>470-100900-
OFFSHORE BUOY REPORTS

STATION/POSITION TIME  TEMP    WIND        PRES    WAVE
                       AIR SEA DIR/SP/G            HT/PER
                 (UTC) (F)     (DEG/KT/KT) (MB)    (FT/S)
20 E GALVESTON   0750   52 64   50/ 14/ 19 1032.1    3/ 5
90 E PT ARANSAS  0750   62 76   50/ 16/ 19 1030.2    7/ 8
35 NE PT MANSFLD 0750   65 75   70/ 14/ 17 1028.5    9/ 9
200 E PT ISABEL  0750   69 76   50/ 17/ 23 1027.3    9/ 9
$$




USA.gov is the U.S. government's official web portal to all federal, state and local government web resources and services.